Location: Kam�li
(14.6864°N, 3.1482°W)
Time: 23:34:18
(UTC+00:00)

Cosmos 1346 Rocket - Pass Details

Date: 29 October 2020
Orbit: 535 x 543 km, 81.2° (Epoch: 03 December)

Event Time Altitude Azimuth Distance (km) Brightness Sun altitude
Rises 19:13:21 0° 348° (NNW) 2,695 6.4 -21.7°
Reaches altitude 10° 19:15:32 10° 344° (NNW) 1,803 5.5 -22.3°
Maximum altitude 19:19:26 58° 266° (W) 634 3.3 -23.2°
Drops below altitude 10° 19:23:20 10° 186° (S) 1,799 5.6 -24.1°
Sets 19:25:30 0° 182° (S) 2,688 6.5 -24.6°
